Theta_e
307 307 306 306 306 306 306 306 306 307 307 307 308 308 310 311 311 311 312 313 315 317 317 318 319 320 322 323 323 323 324 324 322 322 325 326 326 325 324 325 325 325 325 325 325 326 325 325 325 325 325 325 325 327 327 327 325 324 323 321 318 315 311 311 312 313 312 312 311 307 301 297 294 295
306 306 306 306 306 306 306 306 306 306 306 307 307 307 308 309 310 311 311 311 313 315 315 316 317 318 320 320 320 320 321 321 319 320 323 325 325 325 324 325 325 324 325 325 325 326 325 325 325 325 325 325 325 326 326 327 326 325 324 322 320 318 313 309 311 313 313 312 312 311 307 301 296 296
306 306 306 306 306 305 305 305 306 306 306 306 306 307 307 307 308 309 309 309 311 313 314 315 316 316 316 317 317 318 319 320 319 318 321 323 323 324 324 324 325 325 325 325 325 325 325 325 325 325 325 325 326 325 325 326 326 326 325 324 322 320 316 311 310 313 313 312 312 311 310 306 301 298
305 305 305 305 305 305 305 305 305 305 305 305 305 306 306 306 306 307 308 308 309 310 311 312 313 313 314 314 315 316 317 318 318 317 319 321 321 323 324 324 324 324 324 324 325 324 324 325 325 325 325 325 325 325 325 325 326 326 326 325 323 321 319 314 309 311 313 312 311 311 311 309 305 301
304 304 304 304 304 304 305 305 305 305 305 304 305 305 305 305 306 306 306 307 308 309 309 310 311 312 312 313 313 314 315 316 316 316 317 318 320 322 323 324 324 324 323 324 324 324 324 324 324 325 324 324 325 325 326 325 325 326 326 325 324 322 321 318 311 309 311 312 312 310 310 310 307 303
304 303 303 303 303 303 304 304 304 304 304 304 304 304 304 304 305 304 305 306 307 308 309 309 309 309 310 310 311 311 312 313 313 314 314 317 318 319 321 322 323 324 323 323 324 324 324 324 325 325 324 324 324 324 325 325 325 325 325 325 325 323 322 321 316 310 309 311 312 310 310 309 307 304
303 303 303 302 302 302 303 303 304 304 304 304 304 304 304 304 304 304 304 305 306 307 307 307 307 308 308 308 308 309 309 310 310 311 313 314 316 317 318 320 322 323 323 323 324 324 324 324 324 325 325 324 323 323 324 324 325 325 325 325 325 324 323 322 319 314 310 310 311 310 309 308 307 305
302 302 302 302 301 301 301 302 302 303 304 304 304 304 304 304 303 303 304 304 304 305 305 306 306 306 306 306 306 307 307 307 308 309 310 311 313 315 316 317 319 319 320 322 323 323 324 324 325 325 325 324 324 323 323 323 324 324 324 325 324 324 323 322 321 317 312 310 310 310 309 308 308 305
301 301 301 301 301 301 301 301 301 302 302 302 303 303 304 303 303 303 303 303 303 304 304 305 305 305 305 305 305 305 306 306 307 308 309 309 311 312 313 315 317 318 319 321 322 323 323 324 324 324 324 325 324 324 323 322 323 323 323 324 324 324 324 323 321 319 316 312 310 310 310 309 309 307
300 300 300 300 301 301 301 301 301 301 301 301 301 302 302 303 303 303 303 303 303 303 304 304 304 304 304 304 304 304 305 305 306 307 308 308 309 311 312 315 317 318 318 319 319 321 322 322 323 323 323 323 324 324 323 322 322 322 323 323 324 324 324 323 322 320 318 315 312 311 311 310 309 307
298 298 299 299 299 300 300 300 301 301 301 301 301 301 301 302 302 302 302 302 303 303 303 303 303 303 303 303 303 304 304 304 305 306 307 309 309 311 313 315 316 317 318 318 318 318 319 320 321 322 322 322 322 323 323 323 321 321 322 322 323 324 324 323 323 321 319 317 314 313 312 311 310 308
295 296 296 297 297 298 298 298 299 300 300 300 300 301 301 301 301 301 301 301 302 302 302 302 302 303 303 303 303 303 303 303 304 305 306 308 309 309 311 312 313 315 316 317 317 317 318 319 320 320 321 321 321 321 322 322 322 320 320 321 322 323 323 323 323 321 319 318 316 315 314 313 311 309
295 295 295 295 294 294 294 294 295 296 297 298 299 300 300 300 300 300 300 300 301 301 301 301 302 302 302 303 303 303 304 303 304 304 304 305 306 307 308 309 310 312 314 315 316 317 317 318 319 319 319 320 320 320 320 321 321 320 319 319 321 322 322 323 322 321 320 318 317 317 315 314 312 310
295 295 295 295 294 293 293 293 293 293 294 294 295 297 298 299 299 300 300 300 300 300 300 300 301 301 302 302 302 303 303 303 302 302 303 303 304 305 307 308 309 311 313 314 315 316 317 318 318 318 318 319 318 318 319 320 321 321 320 319 319 320 321 321 320 320 320 318 317 317 316 314 312 311
295 295 295 295 295 294 294 295 295 294 294 294 294 294 294 295 296 298 299 299 299 300 300 300 300 300 301 301 301 302 302 302 302 302 302 302 303 303 305 306 308 310 312 313 314 315 316 316 317 317 317 318 317 317 318 319 320 320 320 319 318 319 320 320 319 319 319 319 318 317 316 315 313 310
295 295 295 295 296 295 295 294 295 295 295 295 295 294 294 294 294 295 296 297 298 299 299 299 299 300 300 300 301 301 301 301 301 301 301 301 302 302 304 305 306 308 310 311 312 313 314 315 316 316 317 317 317 317 318 319 319 318 318 318 317 317 318 319 319 318 318 318 318 317 315 314 312 310
294 295 295 295 295 295 295 294 295 296 296 296 295 295 295 295 294 294 294 295 295 297 298 298 299 299 299 299 300 300 300 300 300 300 301 301 301 301 302 303 305 307 308 307 308 310 312 314 314 315 315 316 316 316 317 317 318 317 317 316 316 316 317 318 318 317 316 316 316 316 314 313 311 309
294 294 294 294 295 295 295 295 295 295 295 295 295 295 295 295 295 295 295 295 295 295 295 296 297 297 298 298 298 299 299 299 299 299 300 300 300 301 301 302 303 304 304 304 306 307 309 312 313 314 315 315 316 315 315 316 316 316 316 315 315 316 316 316 317 316 314 313 313 312 311 310 308 306
293 293 293 294 294 294 294 294 294 294 294 294 294 294 294 295 295 295 295 296 295 295 295 296 296 296 297 297 297 298 298 298 298 299 299 299 299 300 300 300 301 301 302 303 304 306 307 310 312 313 314 315 315 314 313 314 315 316 315 314 314 315 315 315 315 315 313 310 309 308 305 304 302 301
293 293 293 293 293 293 293 293 293 292 292 292 292 293 293 294 294 294 295 295 295 295 295 295 295 295 296 296 296 296 297 297 297 298 298 298 299 299 300 300 301 301 302 303 304 305 306 308 310 312 313 313 314 312 311 312 313 314 314 314 313 313 314 314 313 313 311 309 308 306 304 301 299 297
292 292 292 292 292 293 293 293 292 291 291 291 292 292 292 292 293 293 293 294 293 293 293 293 293 293 293 293 294 294 294 295 295 296 297 297 298 299 300 300 301 301 302 303 304 305 306 307 309 310 311 311 311 311 310 310 311 312 312 313 313 312 312 312 312 311 310 309 307 305 303 301 298 295
293 292 292 291 292 292 292 292 291 291 290 290 291 291 291 291 291 292 292 292 293 293 293 293 292 292 292 292 292 292 292 293 293 294 295 296 297 298 299 300 300 301 301 302 303 305 306 306 307 309 310 309 309 309 308 308 310 311 310 311 311 311 310 310 309 309 309 307 306 304 302 300 297 294
293 293 292 292 291 291 291 291 290 290 289 290 290 290 290 290 290 291 291 291 291 292 292 292 292 292 292 292 292 292 292 292 292 293 294 295 296 297 298 299 299 300 301 301 302 304 305 306 307 308 309 309 309 307 305 305 306 308 308 309 309 309 308 307 307 307 306 305 304 302 301 299 296 294
292 292 292 292 292 291 290 290 289 289 289 289 289 290 290 290 290 290 290 290 290 291 291 291 291 292 292 292 292 292 293 293 293 293 294 294 295 297 297 298 298 299 300 301 302 303 305 305 307 308 308 310 309 306 303 302 303 304 306 306 306 306 304 304 304 303 303 303 302 300 299 296 294 294
292 292 292 292 291 290 290 289 289 289 288 288 288 288 289 289 289 289 290 290 290 290 290 290 290 290 291 291 291 291 292 292 293 294 294 295 295 296 297 297 298 298 299 300 301 303 304 306 307 308 308 309 309 306 303 301 301 302 303 303 303 303 301 301 301 300 300 299 299 297 296 294 293 294
292 292 291 291 291 290 289 289 288 288 287 287 287 288 288 288 288 288 288 289 289 289 289 290 290 290 290 290 291 291 291 292 293 293 294 295 295 296 296 297 298 298 299 299 299 300 302 304 306 308 308 308 308 306 304 301 299 300 300 300 301 301 300 299 299 297 297 296 294 294 293 293 293 294
291 291 291 290 290 289 288 287 287 287 287 287 287 288 288 288 287 288 288 288 288 289 289 289 289 290 290 290 290 291 291 292 292 293 293 294 295 295 296 296 297 297 298 298 299 299 301 302 304 306 307 308 308 307 305 303 299 298 298 298 298 298 298 298 297 295 295 293 292 292 292 292 292 291
290 290 290 289 288 288 287 287 287 287 287 287 288 288 288 287 288 288 288 288 289 289 289 289 289 290 290 290 290 290 291 291 292 292 293 294 294 295 295 296 296 297 297 297 298 299 300 301 302 304 306 308 308 308 308 305 300 298 297 297 296 296 296 296 295 294 292 292 292 292 291 290 289 288
289 289 288 288 287 287 287 287 287 288 288 288 288 288 288 288 288 288 289 289 289 289 290 290 290 290 290 290 290 290 290 291 291 292 292 293 294 294 295 296 296 297 297 297 297 298 299 300 301 303 305 306 307 309 309 305 301 298 298 296 295 295 294 294 294 293 292 292 292 290 289 288 287 287
288 288 288 288 287 288 287 287 288 288 288 288 288 288 288 288 289 289 289 289 289 290 290 290 290 290 290 290 290 290 290 290 290 291 291 292 293 294 295 295 296 296 297 297 297 298 299 300 301 302 303 304 305 307 308 305 301 298 297 296 295 294 293 293 293 292 292 292 291 289 288 288 288 287
288 288 288 288 288 288 288 288 288 288 288 288 289 289 289 289 289 289 289 290 290 290 290 290 290 290 290 290 290 290 290 290 290 291 291 292 293 294 294 295 296 296 297 297 297 298 298 299 300 301 302 303 304 305 306 305 301 297 295 296 296 295 293 293 293 292 292 291 290 288 288 288 288 287
287 288 288 288 288 288 288 288 289 289 289 289 289 289 289 289 290 290 290 290 290 290 290 290 290 290 290 290 290 290 290 290 290 291 291 292 292 293 294 295 295 296 296 297 297 297 298 299 299 300 301 303 303 304 304 304 301 298 295 295 295 295 294 293 293 292 291 290 290 289 289 288 288 287
287 288 288 288 288 288 288 288 289 289 289 289 289 289 289 289 289 289 290 290 289 290 290 290 290 290 290 290 290 290 290 290 290 291 291 292 292 292 293 294 295 296 296 297 297 297 298 298 299 299 300 301 302 303 303 301 299 298 296 295 294 294 293 293 292 292 291 290 290 289 289 288 288 289
287 288 288 288 288 288 288 288 288 288 288 288 288 288 288 288 289 289 289 289 289 289 290 290 290 290 290 290 290 290 290 290 290 291 291 291 292 292 293 293 294 295 296 297 297 298 298 298 298 298 299 300 301 302 303 301 299 296 295 295 294 294 293 293 292 291 291 291 290 290 289 289 290 291
287 288 288 288 288 288 288 288 288 288 288 288 288 288 288 288 288 289 289 289 289 289 289 290 290 290 290 290 290 290 290 290 291 291 291 291 291 292 292 293 294 295 296 296 297 297 298 298 298 298 299 299 299 299 300 301 300 297 294 294 294 293 293 292 292 291 291 291 291 291 291 291 290 291
287 287 287 288 288 288 288 288 288 287 288 288 288 288 288 288 288 288 289 289 289 289 289 289 290 290 290 290 290 290 290 290 291 291 291 291 292 292 292 293 294 295 295 296 297 297 298 298 298 298 298 298 298 297 297 297 299 298 295 293 293 293 293 292 291 292 292 291 291 291 291 291 290 291
287 287 287 287 287 287 287 287 287 287 287 287 287 287 288 288 288 288 288 288 288 289 289 289 289 290 290 290 291 291 291 291 291 291 291 292 292 292 293 293 294 295 295 296 296 297 297 297 298 299 298 298 298 297 295 294 295 297 297 295 293 292 292 292 291 292 291 291 291 292 291 291 291 291
287 287 287 287 287 287 287 287 287 287 287 287 287 287 287 287 287 288 288 288 288 289 289 289 290 290 290 291 291 291 291 291 291 291 292 292 292 293 293 293 294 295 296 296 297 297 297 298 298 299 299 299 298 296 294 292 293 294 295 296 294 292 291 292 292 292 292 292 292 292 292 292 291 291
287 287 287 287 287 287 287 287 287 287 287 287 287 287 287 287 287 287 288 288 288 289 289 289 290 290 291 291 291 291 291 291 291 291 292 292 292 293 293 294 295 295 296 296 297 297 297 298 298 299 300 300 299 297 294 293 293 292 293 295 295 293 291 291 291 292 291 291 291 292 292 291 290 289
287 287 287 287 287 287 287 287 287 287 287 287 287 287 287 287 287 287 288 288 288 289 289 289 290 290 291 291 291 291 291 291 291 292 292 292 292 293 293 294 295 295 296 296 297 297 297 298 298 299 300 299 298 296 294 293 292 291 291 292 293 292 291 291 291 291 291 290 291 290 289 289 288 287
287 287 287 287 287 287 287 286 286 286 286 286 287 287 287 287 287 287 287 288 288 289 289 289 290 290 291 291 291 291 291 291 292 292 292 292 293 293 293 294 295 295 296 296 296 296 297 297 298 299 299 297 296 295 293 291 291 291 291 290 291 291 291 291 292 292 291 291 290 289 288 288 288 287
287 287 287 287 287 287 287 286 286 286 286 286 287 287 287 287 287 287 287 288 289 289 289 290 290 291 291 291 291 291 291 292 292 292 292 292 293 293 293 294 295 295 296 296 296 296 296 297 297 297 297 296 295 294 292 291 291 290 290 290 291 291 291 291 292 293 293 292 291 289 288 288 288 288
287 287 287 287 287 287 286 286 286 286 286 286 286 287 287 287 287 287 288 288 289 289 289 290 291 291 291 291 291 291 291 292 292 292 292 293 293 293 293 294 295 296 296 295 294 294 294 295 296 296 295 295 295 294 292 291 291 290 289 289 290 290 290 291 292 293 293 292 292 291 290 289 288 288
287 287 286 286 286 286 286 286 286 286 286 286 286 286 287 287 287 287 288 288 289 289 290 290 291 292 291 292 292 292 292 292 292 292 293 293 293 293 293 294 294 295 294 293 292 292 293 293 294 294 294 293 293 292 291 290 290 289 288 288 289 289 289 289 290 290 290 290 290 290 290 289 289 289
286 286 286 286 286 286 286 286 286 286 286 286 286 286 286 287 287 287 288 288 289 289 290 291 292 292 292 292 292 293 293 293 293 293 293 292 292 292 293 293 293 293 292 292 292 292 292 293 293 293 293 292 291 291 290 289 289 288 288 288 288 288 288 288 288 288 287 287 287 288 289 288 288 288
Wind_Speed
5 5 5 4 4 4 3 3 3 3 3 3 3 4 5 6 6 6 6 7 8 8 8 9 9 7 8 9 9 9 9 11 14 13 11 11 11 12 13 13 13 13 13 13 15 16 16 18 22 27 31 34 34 33 33 34 33 31 30 29 27 27 28 27 26 25 24 22 19 17 16 15 14 13
4 3 3 3 3 3 3 3 2 2 2 2 2 4 5 6 7 8 8 8 9 9 10 10 10 10 11 12 12 12 12 14 17 16 14 12 12 13 13 13 14 14 14 14 15 17 17 17 18 22 27 32 35 36 36 37 36 34 33 31 30 28 28 28 29 27 26 25 22 19 17 15 13 11
3 3 3 3 3 3 3 3 3 3 2 3 3 4 5 6 8 9 9 9 8 8 10 11 11 13 15 15 16 16 14 15 17 17 15 14 14 15 15 14 15 16 16 17 16 17 18 19 19 20 24 29 33 36 38 39 39 38 36 35 32 30 29 29 30 30 28 27 25 22 20 17 14 12
2 3 3 3 4 4 4 4 4 4 4 4 5 5 6 7 8 10 11 11 11 12 13 14 15 14 15 15 15 16 15 15 16 17 16 17 17 16 15 16 18 18 18 19 19 18 18 20 21 21 22 25 29 33 37 40 41 41 40 38 36 33 31 30 31 32 31 30 28 26 24 21 17 14
3 3 4 5 5 5 5 5 6 6 5 6 6 7 7 8 8 9 12 13 14 14 12 13 15 13 14 15 14 14 15 15 16 18 18 17 16 15 14 16 18 20 19 18 19 20 19 19 20 21 22 23 26 29 34 39 42 43 42 40 39 36 34 32 32 33 34 33 31 29 28 25 21 18
4 5 6 6 7 6 6 6 7 7 6 6 7 7 8 9 9 10 12 14 15 15 12 12 14 13 13 15 15 14 15 15 16 18 19 18 15 14 14 15 16 19 21 20 19 19 19 19 18 19 21 22 24 27 30 35 40 43 44 43 42 40 37 34 33 34 35 35 35 33 31 28 24 21
4 5 6 7 8 8 8 8 8 8 7 7 8 8 8 9 10 11 12 14 16 18 16 13 13 13 12 14 15 14 15 16 17 18 19 19 18 17 16 15 14 16 20 21 20 19 19 19 19 19 20 20 21 24 27 31 37 43 45 46 45 43 40 38 35 35 36 36 37 36 34 30 26 23
4 5 6 7 8 8 9 9 8 8 8 8 9 9 9 9 10 11 12 14 16 18 19 16 14 14 14 15 15 15 15 16 17 18 19 20 21 20 18 17 17 18 20 21 22 21 20 19 19 19 19 20 20 22 25 28 33 40 45 47 46 45 43 41 38 36 36 37 38 37 35 33 28 25
5 6 7 8 8 9 9 10 9 9 10 10 10 11 11 10 10 11 12 14 15 18 20 19 17 16 16 16 15 15 15 16 15 15 17 19 19 20 21 20 19 18 19 18 19 20 20 19 19 19 19 20 20 20 22 25 30 36 43 47 47 46 45 43 41 38 37 37 37 37 36 34 30 27
7 8 9 9 9 10 10 11 11 11 11 12 12 12 13 13 12 13 14 15 15 17 20 21 20 17 16 16 16 15 14 15 16 16 16 16 16 17 19 18 16 14 15 16 17 18 18 19 19 18 18 19 20 20 21 23 27 33 39 45 48 48 47 46 44 42 39 38 38 37 36 34 32 29
9 9 9 10 10 11 11 12 12 12 12 12 13 13 13 13 14 15 15 16 17 18 19 20 20 18 16 15 16 15 13 15 17 16 15 15 13 12 13 14 14 13 14 15 16 17 17 19 20 20 18 18 19 20 21 22 25 29 35 42 47 48 48 47 46 45 42 39 38 37 36 35 33 30
9 9 10 11 11 11 12 13 13 14 13 13 14 14 13 14 15 16 16 17 18 19 20 19 19 18 17 15 15 14 13 14 14 13 13 14 14 13 13 14 14 14 15 15 15 15 15 16 17 18 18 18 19 20 21 22 24 27 31 38 44 47 48 48 48 47 44 42 40 38 37 36 34 32
9 10 12 13 14 15 15 16 17 17 18 18 17 16 15 15 17 17 18 18 17 18 19 19 18 18 17 16 15 14 12 12 13 13 14 15 16 15 15 15 15 15 16 16 16 15 13 12 12 13 14 16 18 19 19 21 24 26 29 33 39 45 48 49 49 49 46 44 42 40 39 38 35 34
10 12 14 16 18 19 19 18 18 19 20 21 21 21 19 18 18 19 19 19 19 19 19 18 18 18 18 16 16 16 14 13 13 15 15 15 15 15 15 14 13 13 13 15 16 15 12 11 11 11 12 13 14 16 18 20 22 24 26 30 36 42 46 48 49 49 48 47 45 42 40 39 37 35
11 13 15 16 17 18 18 17 17 19 20 21 22 23 23 22 22 21 21 21 20 21 21 21 20 20 19 18 17 17 16 14 14 14 14 14 14 14 14 12 10 9 9 12 14 14 12 11 12 13 12 11 11 14 17 16 17 19 22 26 32 38 44 47 48 49 49 48 47 44 42 41 38 36
12 14 15 15 15 16 18 18 18 18 20 20 21 22 23 24 25 25 26 24 22 21 21 22 22 22 21 20 18 17 17 17 17 16 16 15 15 14 14 13 12 10 7 9 13 15 14 12 13 14 13 11 11 13 15 14 13 15 17 21 27 34 39 44 46 49 50 50 49 47 45 42 40 38
13 14 14 15 15 15 17 18 17 17 17 18 20 21 22 24 25 26 28 29 28 27 25 25 24 23 22 22 20 19 19 19 19 19 18 17 16 16 16 15 15 13 9 9 12 16 16 13 14 16 15 12 12 12 13 13 13 13 14 17 22 28 34 39 43 46 49 50 50 49 47 45 43 41
13 14 15 15 15 16 16 16 16 16 16 17 18 19 20 21 22 23 25 27 29 30 30 31 30 26 25 26 25 22 22 21 21 21 20 19 19 19 19 18 19 19 17 15 14 16 16 14 16 18 16 14 12 11 13 14 13 12 13 15 18 22 28 35 39 43 45 46 46 47 46 44 43 42
14 14 15 16 16 16 16 16 16 16 16 18 19 20 21 22 22 23 24 24 25 27 28 29 30 28 27 27 26 25 23 23 23 22 22 22 21 22 22 22 22 22 21 19 17 17 17 15 16 18 16 14 14 12 12 15 14 11 11 13 16 19 23 29 35 39 41 41 42 42 41 40 40 39
15 15 16 16 16 16 16 16 17 18 18 19 21 22 22 23 23 23 23 23 25 26 27 28 29 29 29 28 27 26 25 24 23 21 23 23 21 21 22 21 21 19 18 18 19 19 19 17 17 18 16 14 15 12 10 14 14 12 11 12 15 18 21 26 31 35 37 38 40 41 40 39 38 35
16 17 19 19 17 17 17 16 17 18 18 19 21 23 24 24 24 23 22 23 24 26 27 29 30 32 33 33 32 32 31 30 27 24 25 23 21 21 19 17 19 18 17 17 17 19 20 18 17 18 16 14 15 12 10 13 15 12 11 12 14 16 20 24 28 32 34 36 39 40 40 39 36 31
15 17 20 19 17 17 18 18 19 19 20 21 22 23 24 25 25 23 21 22 23 24 25 27 28 29 31 32 34 35 35 35 33 31 29 25 23 24 21 18 19 19 18 17 16 17 19 18 17 17 15 14 15 13 10 13 15 13 11 12 13 14 17 21 24 28 31 34 37 39 39 37 34 29
16 15 16 17 17 19 20 20 21 21 21 22 23 24 25 26 26 23 21 22 22 22 24 24 25 26 26 27 29 30 31 33 34 35 33 29 27 27 25 22 19 15 14 15 16 18 19 16 16 17 13 11 10 9 7 9 11 11 11 11 12 13 14 17 21 25 29 32 34 36 37 36 33 30
17 16 17 17 18 20 22 22 23 23 22 23 24 25 26 27 26 23 22 23 23 24 25 25 25 26 26 25 26 26 26 27 29 31 33 32 31 30 28 25 22 18 14 12 14 17 17 15 16 17 15 11 6 4 3 4 6 8 10 11 13 13 13 16 19 22 26 29 31 33 34 34 32 31
19 20 20 20 20 20 21 23 24 24 25 25 26 26 27 29 28 27 27 28 27 28 29 28 27 27 26 26 27 26 26 26 25 26 28 30 33 33 31 28 26 25 23 18 16 16 15 14 15 15 16 15 9 3 3 1 3 7 10 11 12 13 15 17 19 22 24 27 30 32 32 31 30 28
22 22 21 21 20 21 22 24 26 28 29 29 28 29 30 31 32 32 31 30 29 28 28 28 27 27 27 26 26 25 25 25 25 25 26 28 30 32 33 31 29 27 25 21 21 21 18 16 17 16 15 15 11 7 6 4 3 6 9 10 12 15 17 19 22 24 27 28 30 31 30 28 26 24
23 22 21 21 22 23 26 28 30 31 31 30 29 30 32 33 34 33 31 30 29 28 27 27 27 27 27 27 26 25 25 25 26 27 27 28 29 30 32 33 33 31 26 22 22 22 20 19 19 19 18 17 13 10 9 7 6 7 8 10 13 16 19 21 24 27 29 31 31 29 27 25 23 21
21 21 22 23 25 28 30 31 31 31 31 29 29 30 31 32 32 31 29 28 27 26 26 26 27 27 27 27 28 27 25 24 25 25 26 26 27 29 29 30 32 31 29 27 25 24 22 22 23 22 20 19 16 14 12 10 9 10 11 11 12 16 19 22 25 27 29 32 31 29 28 26 24 22
21 23 24 26 27 28 29 29 28 27 26 26 27 28 29 28 27 26 25 25 24 24 25 26 27 28 27 27 28 27 26 25 24 24 24 25 25 26 27 28 29 29 29 28 27 26 25 25 26 24 19 17 17 17 14 11 11 12 15 16 14 15 18 21 24 26 27 30 31 30 30 29 26 24
22 23 24 25 26 25 25 25 24 23 23 23 24 25 25 23 22 22 22 23 23 24 25 25 27 28 27 26 26 26 26 27 26 24 23 23 24 24 24 25 26 27 28 28 26 26 26 25 25 24 21 18 17 16 14 12 13 13 17 19 18 16 17 19 21 24 27 30 32 31 30 28 26 24
21 22 22 23 23 22 22 21 21 22 22 21 21 20 19 19 19 20 21 22 24 25 25 25 26 27 27 26 26 26 26 27 26 24 23 23 22 22 22 23 24 25 27 28 27 27 27 25 24 24 24 21 19 17 16 15 15 15 16 20 21 19 20 20 19 21 28 32 31 29 28 27 26 24
20 20 20 19 19 19 19 19 19 19 19 19 19 19 19 20 21 22 23 25 27 27 27 26 27 27 27 26 26 26 25 26 25 24 23 23 23 22 21 21 21 20 23 25 26 27 27 26 25 25 25 22 20 19 18 17 19 18 18 20 19 17 19 22 20 21 29 33 30 26 26 26 24 23
19 17 17 17 17 18 18 19 19 19 19 19 19 19 20 20 21 21 22 25 26 27 27 28 29 29 28 28 28 27 26 27 27 25 25 24 23 22 22 21 20 19 20 22 23 23 24 24 24 26 26 24 23 22 18 16 17 19 21 21 18 15 18 20 20 24 32 35 30 27 27 26 24 24
15 15 16 16 17 18 19 19 19 20 20 20 20 20 20 20 20 21 22 24 25 26 26 27 29 29 28 28 28 28 27 28 28 27 28 28 26 24 23 22 22 21 21 21 21 21 21 21 22 23 25 26 24 24 23 20 19 20 21 20 19 19 18 17 21 28 34 34 31 28 25 23 23 25
13 14 15 17 18 18 19 20 20 21 21 21 21 21 21 20 20 21 22 23 24 24 24 25 26 28 28 28 27 27 27 27 27 26 27 28 28 27 26 24 22 22 22 22 21 21 21 20 18 16 16 17 16 15 19 23 24 24 22 18 19 20 19 20 26 31 31 30 31 28 23 20 20 22
13 14 15 17 18 19 20 20 21 21 21 21 22 22 22 21 21 21 22 24 25 24 24 24 24 25 26 27 27 27 27 26 25 24 24 25 26 26 25 24 23 23 22 22 22 21 20 20 20 16 11 9 9 8 9 16 24 28 26 22 18 19 22 26 30 31 31 33 33 29 24 20 19 21
14 15 16 17 19 20 20 21 21 21 22 22 22 22 22 22 22 23 24 25 26 25 25 25 25 26 26 25 24 24 25 24 22 21 21 22 23 23 22 22 22 22 22 22 22 22 21 22 24 21 13 7 8 7 6 9 19 27 30 28 21 19 25 31 31 30 33 37 34 29 26 23 22 23
15 16 17 18 19 19 20 21 21 22 22 22 23 23 23 23 24 25 24 24 24 24 24 24 24 25 25 24 22 20 20 20 20 20 20 20 21 21 21 20 19 19 20 21 22 22 23 24 26 26 18 9 7 6 7 10 15 20 26 30 28 26 28 31 29 27 30 34 33 31 30 28 27 26
16 17 18 19 19 19 20 21 21 22 22 23 23 23 24 24 24 24 24 23 23 23 23 23 23 24 24 24 22 20 19 19 19 19 19 19 20 20 19 18 18 18 18 19 20 22 24 25 26 27 23 14 10 13 16 16 16 18 21 27 31 35 35 34 31 28 28 31 32 31 30 29 27 25
17 17 18 19 19 19 20 21 21 22 22 23 23 23 24 24 24 23 23 23 23 23 23 23 23 24 24 22 21 21 20 20 19 18 18 18 19 19 17 16 17 17 16 15 16 19 23 24 26 27 23 17 17 24 26 22 19 21 23 24 29 36 41 41 40 35 31 33 35 32 29 28 26 23
18 19 19 19 19 19 20 21 22 22 23 23 23 23 24 23 23 23 24 25 25 25 24 24 23 23 23 22 21 19 18 17 17 17 17 17 17 18 18 18 17 16 15 13 13 16 20 22 23 24 21 21 26 29 24 18 16 19 23 22 23 29 35 41 44 41 37 38 37 30 24 23 23 21
18 19 19 19 20 20 19 21 22 23 24 24 23 24 24 24 24 24 24 24 24 23 22 22 21 20 19 19 19 18 17 16 16 16 17 16 15 15 17 17 15 15 14 12 12 15 17 19 22 24 25 30 34 27 16 11 15 21 23 22 23 26 29 33 37 38 38 39 37 30 25 22 20 18
17 18 19 19 20 20 20 21 23 24 24 24 23 23 24 23 23 23 22 22 22 20 20 20 18 15 13 14 16 17 17 16 15 15 15 16 15 14 15 15 15 16 14 12 14 19 22 23 26 31 31 31 31 25 18 17 21 24 24 25 27 28 28 30 31 33 33 33 31 29 28 26 20 17
18 18 19 19 20 21 21 22 23 24 24 23 23 23 23 22 22 23 21 20 20 19 19 19 15 10 10 11 13 15 16 15 15 15 14 14 16 16 16 16 16 15 14 17 19 21 24 25 28 31 29 27 28 29 26 24 23 23 24 28 32 31 31 31 31 29 27 23 22 24 26 24 19 19
18 19 19 19 20 21 21 22 23 24 24 23 23 24 24 22 22 21 19 18 18 20 20 18 12 7 8 9 10 12 13 13 14 14 13 13 15 16 15 15 16 16 19 23 23 20 21 23 25 27 27 27 29 32 30 28 29 29 28 29 30 28 27 28 28 26 23 18 15 18 19 15 14 18
Wind_Direction
69 67 62 55 51 42 31 25 17 5 342 319 298 286 279 276 281 288 288 286 285 287 291 291 286 288 304 313 314 311 311 305 305 311 305 289 285 289 285 275 269 267 266 263 259 253 248 247 244 242 243 241 238 238 239 236 231 230 230 228 223 218 212 207 206 205 202 203 209 205 194 188 186 188
52 48 43 31 28 23 12 2 354 346 336 311 279 269 267 266 269 277 284 284 279 279 285 283 281 292 307 313 312 310 311 306 303 308 308 296 288 289 286 275 273 275 273 269 266 260 254 249 244 238 237 239 239 238 238 239 236 233 232 231 228 223 218 211 206 207 207 205 209 211 202 192 187 192
32 21 11 1 355 349 341 336 330 321 313 306 288 268 261 260 261 266 274 277 273 276 284 285 287 296 302 305 305 304 305 304 301 304 308 302 289 283 279 274 273 274 275 274 271 266 259 253 249 243 236 234 235 236 236 237 237 236 234 233 231 226 223 217 209 207 209 209 210 215 213 202 197 203
24 6 353 342 335 326 314 309 312 308 300 298 295 286 274 266 261 260 262 266 272 276 279 282 287 294 298 299 299 298 299 303 303 302 304 303 297 291 283 278 276 274 274 276 275 271 264 258 254 250 244 237 233 234 235 235 236 236 235 233 232 229 226 222 214 208 209 211 212 216 220 216 211 214
12 356 345 337 330 320 306 297 296 294 290 288 285 284 281 276 272 269 265 268 277 279 275 277 282 287 293 294 292 293 296 300 301 298 298 301 303 300 293 284 279 275 273 275 278 276 271 265 260 255 251 245 239 236 236 235 235 235 235 233 232 231 228 225 220 213 210 211 213 216 221 222 219 220
352 344 337 332 328 320 307 297 292 289 286 282 279 278 278 278 277 276 274 275 281 285 283 283 285 285 287 288 287 289 292 294 297 294 293 295 298 299 300 295 286 279 274 273 276 278 275 269 264 259 256 252 245 240 239 238 236 235 235 234 233 232 230 227 223 218 213 212 215 218 222 223 222 221
329 328 325 323 322 319 312 303 296 290 283 280 280 277 274 275 276 275 276 276 280 286 289 289 289 289 290 289 289 291 290 289 290 287 285 286 287 290 295 298 295 286 279 275 274 277 277 274 269 264 260 258 253 247 243 242 238 235 235 235 234 232 231 229 226 222 217 216 217 220 223 224 222 221
308 310 311 312 312 311 307 304 300 294 289 285 282 279 275 272 274 275 275 274 277 284 288 289 290 292 293 291 292 295 295 292 287 283 281 281 282 283 284 288 292 292 288 279 272 271 274 275 273 270 266 263 259 253 248 246 242 237 235 235 235 233 232 230 227 224 220 219 220 223 224 225 222 220
307 306 304 303 304 301 299 298 297 295 292 290 284 280 278 274 272 274 274 273 274 279 283 287 290 290 290 290 291 295 297 298 294 286 282 280 281 281 282 282 284 290 294 286 273 268 269 272 274 274 272 269 264 259 252 247 244 239 236 235 235 234 233 231 228 226 222 221 222 224 225 225 223 220
309 308 305 301 298 294 291 289 289 289 288 287 283 280 278 277 275 273 272 271 271 273 278 284 287 286 286 285 287 289 291 295 297 294 290 285 282 281 281 281 280 282 289 289 282 275 270 269 272 273 273 271 267 262 256 249 244 240 237 235 234 233 233 231 229 227 223 221 223 224 225 225 223 221
313 311 307 303 298 292 289 285 284 284 282 280 279 278 277 277 276 274 272 271 271 271 274 278 281 283 283 282 282 282 284 287 289 291 292 290 287 283 281 283 284 283 283 285 289 287 279 272 271 271 272 270 266 262 258 252 246 241 238 236 233 232 232 231 230 227 223 221 222 223 225 225 223 221
316 313 309 305 299 292 288 284 280 278 277 277 277 275 273 274 274 273 273 271 270 270 271 273 276 279 280 279 279 279 278 280 282 285 291 293 292 290 286 283 282 282 282 282 287 292 289 279 273 272 270 267 263 259 256 254 249 243 239 237 235 233 232 232 230 227 223 221 221 223 225 225 222 220
312 311 307 305 305 302 295 289 281 274 270 269 270 270 270 270 270 269 269 269 268 268 268 269 271 274 274 275 278 277 273 275 281 284 287 289 290 291 288 282 277 277 279 280 280 282 284 279 271 267 266 266 265 260 253 250 250 247 241 237 236 234 233 232 230 227 224 222 220 222 224 223 222 220
306 306 303 301 304 305 302 295 289 281 274 268 265 264 264 265 266 267 266 266 266 267 267 268 268 268 269 268 270 273 274 276 279 281 282 284 289 293 291 284 278 275 275 276 276 275 274 273 270 264 262 264 266 265 257 249 248 251 247 238 235 235 234 232 229 226 224 222 221 221 222 222 221 219
302 302 299 296 296 297 296 294 289 285 282 276 270 266 262 260 259 260 262 263 263 264 265 266 266 266 267 266 265 268 272 274 274 275 278 280 282 286 287 286 285 282 276 275 276 274 269 267 268 269 267 262 260 268 270 261 252 253 252 242 235 233 234 233 230 227 225 223 221 221 221 221 218 216
304 301 298 295 290 289 293 295 289 282 280 280 277 274 270 266 260 256 255 257 258 261 263 264 264 263 266 268 265 264 269 272 273 273 273 273 273 274 275 278 280 280 282 284 281 276 269 264 265 269 271 266 261 270 279 277 265 258 255 249 238 233 233 233 231 228 226 224 222 220 219 218 216 213
306 302 299 296 291 288 293 294 288 280 279 278 278 278 276 272 267 262 258 255 255 256 259 262 262 261 264 266 265 265 268 270 272 271 269 267 266 266 266 268 271 274 282 294 290 279 270 265 264 266 271 270 267 271 276 279 276 267 260 256 247 238 235 235 232 229 226 222 220 219 217 216 214 212
309 303 298 294 290 289 288 286 282 280 282 282 281 280 277 273 271 268 265 262 258 256 255 257 259 259 260 263 265 265 265 265 266 267 267 266 265 265 265 267 270 272 274 278 283 278 271 265 262 264 268 271 270 270 272 276 279 274 263 257 252 245 239 236 234 230 226 221 218 217 214 211 209 208
313 306 300 293 290 289 286 284 283 283 286 287 285 282 278 275 272 268 265 262 258 255 253 254 257 259 259 260 263 263 261 261 262 264 265 266 266 268 269 268 267 268 265 259 257 262 265 263 261 263 266 269 268 269 273 277 279 276 267 258 253 249 244 239 234 230 226 220 215 213 209 205 203 201
315 309 303 295 288 287 285 283 282 283 286 288 287 283 280 278 275 270 267 263 259 257 256 255 257 260 260 260 261 260 259 258 261 266 266 263 261 264 265 263 261 261 259 248 241 248 257 255 256 262 265 264 263 265 273 280 279 272 263 257 252 248 244 239 234 229 225 219 213 210 207 203 200 197
311 307 307 302 290 284 283 281 279 281 284 286 286 284 283 280 277 274 272 269 266 265 265 263 262 262 261 261 261 260 260 258 259 263 263 258 255 255 256 258 258 256 253 245 237 242 250 248 249 258 261 260 262 265 270 275 276 269 254 249 249 246 243 238 231 227 222 217 212 209 206 202 198 194
305 301 304 303 291 283 282 280 280 281 283 285 285 284 283 281 279 277 276 274 272 271 271 270 269 267 265 263 261 261 260 258 256 255 254 253 252 251 251 253 257 257 252 243 233 237 246 245 244 251 256 259 261 259 260 267 269 263 248 239 239 240 238 234 228 223 219 215 211 207 204 199 194 191
305 298 297 295 290 288 287 286 286 285 285 284 283 282 282 280 277 278 278 277 275 275 273 272 270 269 267 264 262 260 259 258 254 250 248 248 246 247 248 248 251 256 253 237 224 230 241 242 238 239 244 254 253 239 244 263 261 249 240 233 229 228 229 227 222 219 216 211 207 204 199 195 192 189
307 302 299 296 293 290 288 288 289 288 286 284 282 280 278 275 276 279 279 277 276 276 275 273 271 270 268 265 263 260 258 257 252 247 244 240 238 241 244 243 242 244 247 232 216 225 236 239 237 234 232 240 239 185 193 248 244 230 227 225 220 214 212 213 211 211 211 208 203 199 195 192 191 189
305 303 300 296 293 289 285 285 287 286 284 282 280 277 273 272 275 278 278 277 276 275 274 273 271 269 267 265 262 259 257 254 250 247 243 238 236 238 239 239 239 241 243 238 225 229 236 235 235 232 228 233 239 194 159 203 234 222 217 216 214 204 196 197 197 196 199 198 195 192 189 189 190 190
303 299 297 294 292 288 286 286 287 286 285 283 280 276 275 274 275 276 276 275 274 272 271 270 268 266 264 263 261 257 255 252 248 245 242 238 237 238 237 237 238 240 243 239 232 233 237 234 234 231 224 225 230 217 198 186 196 207 203 203 205 197 190 189 187 185 186 185 185 185 185 186 188 189
299 296 294 292 290 289 288 289 290 289 288 285 280 277 276 276 276 274 273 271 269 267 265 264 263 261 260 260 259 256 253 251 248 245 243 241 239 239 239 239 239 242 245 242 235 233 233 233 234 232 229 229 226 217 210 196 178 181 183 186 191 190 189 187 183 180 179 179 180 181 181 182 184 184
294 292 291 291 291 292 292 293 292 291 288 283 279 277 276 276 275 272 268 265 264 262 259 258 257 255 254 254 254 254 253 252 251 249 248 247 244 243 242 241 241 243 243 242 241 237 234 236 236 235 237 238 233 227 221 201 176 170 169 168 176 183 185 184 180 175 175 177 178 177 176 177 176 176
294 293 293 295 295 295 295 294 292 290 286 283 280 279 278 276 272 268 264 262 260 257 255 254 253 253 252 250 250 252 252 252 253 252 252 250 248 246 245 244 243 242 240 240 241 238 236 238 239 239 242 244 242 240 228 193 167 171 175 167 166 176 180 179 177 173 172 174 176 175 174 174 172 172
300 298 299 299 297 295 295 293 291 289 287 286 285 283 281 276 271 266 262 259 256 254 253 252 253 254 254 253 252 252 249 248 248 248 249 249 247 244 244 246 245 242 240 239 239 238 236 236 237 239 243 244 244 245 230 189 163 169 178 170 161 165 175 178 177 174 172 173 173 173 174 173 171 171
305 302 301 299 299 299 299 297 295 294 293 291 290 288 285 279 272 267 263 260 258 257 256 256 256 257 256 254 252 250 246 244 243 243 243 244 243 241 241 244 244 242 241 240 240 239 237 234 234 237 239 239 239 242 239 215 184 170 172 174 169 166 170 174 174 174 174 172 170 170 171 171 170 170
307 304 303 304 305 306 305 304 302 300 298 295 293 291 287 283 277 273 270 266 264 263 262 261 261 259 256 253 250 247 243 241 240 240 239 239 240 240 241 242 242 240 239 239 238 238 237 235 234 234 236 237 236 235 233 218 196 179 170 174 174 167 166 169 169 170 172 170 167 166 168 169 168 170
310 306 308 310 311 311 310 309 306 304 302 299 296 292 288 284 281 278 275 273 271 270 268 265 262 259 256 253 250 246 242 241 241 240 238 237 240 240 240 242 241 238 237 237 235 233 233 232 233 234 237 240 240 234 222 203 190 183 175 171 167 161 164 168 166 168 171 169 163 161 165 166 167 168
313 312 314 314 314 314 313 311 308 306 305 302 300 296 292 287 284 282 280 279 278 275 271 266 263 259 255 252 250 246 243 243 243 241 238 239 240 239 238 239 240 238 237 236 233 229 229 231 234 235 235 235 236 233 224 208 190 178 173 171 166 160 161 166 165 168 171 169 160 154 155 160 164 166
316 317 316 315 315 315 313 311 309 308 306 304 302 301 298 293 289 285 282 281 279 276 272 268 265 259 254 251 249 245 242 241 241 239 237 237 237 238 237 236 237 236 234 232 231 231 229 228 225 219 213 210 211 217 219 213 198 177 163 163 166 161 158 161 164 164 164 162 155 148 144 148 156 162
320 320 318 317 318 317 314 312 310 308 307 305 303 301 299 296 291 286 283 282 281 279 275 271 267 261 256 253 250 246 241 238 236 234 233 232 233 235 236 235 235 235 231 229 230 229 226 222 214 200 180 171 177 181 192 202 198 185 170 160 160 162 160 160 161 160 160 159 154 148 144 145 151 158
325 323 322 321 321 319 315 313 311 310 308 306 304 301 297 294 291 289 287 285 284 281 275 271 267 263 258 254 248 243 238 233 230 228 228 227 228 229 231 233 232 230 228 228 227 225 223 219 210 199 184 168 179 176 147 162 184 187 180 168 157 157 161 158 156 156 159 160 157 152 148 147 149 155
329 326 324 322 319 317 315 313 312 311 308 305 303 300 296 293 291 291 290 288 285 281 277 273 270 266 261 254 245 239 232 226 225 226 225 224 225 226 227 229 226 223 224 226 225 223 222 217 207 198 191 179 171 161 142 147 163 177 181 175 163 154 155 154 152 153 156 158 159 158 155 151 148 149
333 328 324 321 318 316 315 314 312 310 307 305 302 299 297 295 293 293 292 289 286 283 279 276 272 267 263 255 244 235 227 220 219 222 223 223 224 223 223 222 219 217 218 222 225 222 217 212 206 199 193 188 180 166 155 150 150 156 170 175 169 160 155 152 149 148 150 151 151 150 148 145 143 143
335 331 327 322 318 316 314 313 313 310 308 305 302 299 298 297 295 294 293 292 291 288 282 278 273 266 261 252 239 230 225 220 219 219 220 221 221 219 217 216 214 215 218 220 218 212 208 207 205 200 194 186 173 160 146 132 127 136 147 158 165 163 161 158 154 150 147 147 145 139 135 136 138 141
335 333 330 325 320 317 314 314 315 313 310 308 305 303 303 300 298 296 296 295 295 291 285 280 276 267 258 247 235 225 220 218 218 218 219 220 219 214 211 211 212 212 214 213 206 201 203 204 200 194 183 162 148 142 133 118 115 126 134 142 153 158 159 161 161 157 152 148 143 135 132 137 141 146
335 333 330 326 323 320 318 317 317 316 313 312 310 309 307 305 303 302 301 301 300 295 288 284 281 271 257 243 230 221 216 214 215 214 213 214 212 206 205 207 208 207 206 207 198 187 185 186 181 172 162 151 144 137 128 126 128 125 124 130 140 148 154 159 162 160 157 153 148 142 141 142 143 151
336 332 328 327 325 323 322 321 320 318 316 315 315 313 311 309 307 306 306 305 304 299 296 295 291 275 250 233 224 218 214 212 211 210 208 207 206 204 204 206 210 210 202 187 170 161 158 159 160 155 150 148 144 137 127 126 128 125 123 125 129 136 143 148 151 152 154 156 156 154 153 151 151 157
336 331 328 328 327 326 325 325 324 323 321 319 318 317 315 312 309 309 309 309 309 311 314 313 305 276 239 224 218 215 215 215 214 211 209 208 206 208 208 206 204 199 176 152 145 145 145 145 148 148 144 141 138 133 127 124 122 120 121 124 126 128 131 134 137 141 144 149 155 157 157 157 160 164
336 332 330 329 328 328 327 327 327 328 327 326 324 323 321 317 314 314 314 316 321 328 330 327 316 280 237 222 217 217 219 221 219 216 215 212 207 207 205 191 175 164 152 143 139 137 136 136 136 135 132 130 129 129 127 125 123 121 119 121 123 125 125 126 128 127 124 124 141 157 160 158 161 163